GBPCK KHFD-KGLS

Flight info

Callsign GBPCK
Flight time N/A
Altitude 43000
Route GREKI Q75 GVE Q34 MAULS Q40 AEX WAPPL7
Aircraft C750/M-SBDE3FGHRWXY/S

Departure

Time 2026-05-04 01:14
Airport Hartford Brainard Airport (KHFD)

Arrival

Time N/A
Airport Scholes International At Galveston Airport (KGLS)
Time Latitude Longitude Altitude Speed Heading
2026-05-04 01:02 41.74058 -72.64978 25 ft 0 kts 259°
2026-05-04 01:11 41.74056 -72.64992 25 ft 4 kts 258°
2026-05-04 01:11 41.74036 -72.65012 24 ft 8 kts 194°
2026-05-04 01:11 41.73963 -72.64985 24 ft 11 kts 102°
2026-05-04 01:12 41.73922 -72.64935 26 ft 9 kts 182°
2026-05-04 01:12 41.73837 -72.64952 23 ft 18 kts 190°
2026-05-04 01:12 41.73703 -72.64982 23 ft 21 kts 189°
2026-05-04 01:12 41.73534 -72.65016 22 ft 27 kts 189°
2026-05-04 01:13 41.73352 -72.65055 21 ft 26 kts 185°
2026-05-04 01:13 41.73216 -72.65066 20 ft 13 kts 149°
2026-05-04 01:13 41.73205 -72.64974 20 ft 8 kts 10°
2026-05-04 01:13 41.73208 -72.64973 20 ft 0 kts
2026-05-04 01:14 41.73323 -72.64949 21 ft 59 kts
2026-05-04 01:14 41.74058 -72.64796 30 ft 144 kts
2026-05-04 01:14 41.75094 -72.64633 476 ft 156 kts 356°
2026-05-04 01:14 41.76152 -72.65285 809 ft 179 kts 312°
2026-05-04 01:15 41.76516 -72.66807 1545 ft 179 kts 266°
2026-05-04 01:15 41.75980 -72.68408 2004 ft 194 kts 241°
2026-05-04 01:15 41.75236 -72.69965 2605 ft 209 kts 242°
2026-05-04 01:15 41.74462 -72.71781 3018 ft 237 kts 245°
2026-05-04 01:16 41.73645 -72.73757 3790 ft 246 kts 244°
2026-05-04 01:16 41.72774 -72.75730 4897 ft 246 kts 244°
2026-05-04 01:16 41.71902 -72.77688 5843 ft 249 kts 245°
2026-05-04 01:16 41.71018 -72.79695 6823 ft 251 kts 246°
2026-05-04 01:17 41.70125 -72.81726 7814 ft 254 kts 247°
2026-05-04 01:17 41.69221 -72.83774 8851 ft 256 kts 248°
2026-05-04 01:17 41.68308 -72.85838 9820 ft 260 kts 248°
2026-05-04 01:17 41.67387 -72.87928 10424 ft 273 kts 248°
2026-05-04 01:18 41.66381 -72.90231 10573 ft 301 kts 248°
2026-05-04 01:18 41.65264 -72.92756 10676 ft 326 kts 246°
2026-05-04 01:18 41.64084 -72.95372 11394 ft 328 kts 246°
2026-05-04 01:18 41.62914 -72.97992 12002 ft 334 kts 246°
2026-05-04 01:19 41.61727 -73.00690 12670 ft 339 kts 246°
2026-05-04 01:19 41.60515 -73.03424 13334 ft 344 kts 246°